FW6650 Weather Reports


Display with metric or nautical units.
time (UTC)temp
F
wind
direction
speed
MPH
gust
MPH
rain 1hr
in
rain 24hr
in
rain mn
in
humidity
%
barometer
mb
20260509112036 77 238 7.0 17.0 0.00 0.00 0.00 35 1013.1
20260509111539 76 231 9.0 17.0 0.00 0.00 0.00 35 1013.1
20260509111027 77 259 5.0 16.0 0.00 0.00 0.00 35 1013.0
20260509110526 76 221 7.0 16.0 0.00 0.00 0.00 34 1013.1
20260509110034 76 254 6.0 14.0 0.00 0.00 0.00 35 1013.0
20260509105526 76 275 7.0 17.0 0.00 0.00 0.00 35 1013.0
20260509105029 76 228 8.0 17.0 0.00 0.00 0.00 37 1013.1
20260509104537 76 226 9.0 18.0 0.00 0.00 0.00 36 1013.1
20260509104027 76 261 7.0 20.0 0.00 0.00 0.00 35 1013.1
20260509103527 76 188 10.0 20.0 0.00 0.00 0.00 35 1013.2
20260509103036 76 232 9.0 18.0 0.00 0.00 0.00 34 1013.1
20260509102529 76 217 8.0 18.0 0.00 0.00 0.00 36 1013.2
20260509102027 75 210 10.0 19.0 0.00 0.00 0.00 37 1013.2
20260509101541 75 217 9.0 23.0 0.00 0.00 0.00 37 1013.4
20260509101029 75 235 11.0 23.0 0.00 0.00 0.00 36 1013.4
20260509100527 76 234 9.0 21.0 0.00 0.00 0.00 35 1013.5
20260509100039 75 215 11.0 21.0 0.00 0.00 0.00 32 1013.5
20260509095527 75 219 10.0 19.0 0.00 0.00 0.00 33 1013.6
20260509095027 75 171 8.0 19.0 0.00 0.00 0.00 33 1013.8
20260509094545 75 225 9.0 19.0 0.00 0.00 0.00 34 1013.9
20260509094026 76 213 9.0 18.0 0.00 0.00 0.00 33 1013.9
20260509093526 76 229 6.0 18.0 0.00 0.00 0.00 32 1013.9
20260509093045 76 217 9.0 17.0 0.00 0.00 0.00 32 1013.8
20260509092526 76 227 6.0 16.0 0.00 0.00 0.00 34 1013.8
20260509092026 75 246 8.0 16.0 0.00 0.00 0.00 35 1013.8
20260509091534 75 273 8.0 14.0 0.00 0.00 0.00 35 1013.8
20260509091026 75 254 8.0 14.0 0.00 0.00 0.00 38 1013.9
20260509090529 75 277 5.0 13.0 0.00 0.00 0.00 39 1013.9
20260509090058 75 272 6.0 13.0 0.00 0.00 0.00 37 1013.9
20260509085528 76 236 5.0 12.0 0.00 0.00 0.00 35 1014.0
20260509085027 75 230 6.0 14.0 0.00 0.00 0.00 36 1014.0
20260509084545 75 274 8.0 14.0 0.00 0.00 0.00 37 1014.1
20260509084027 75 242 4.0 11.0 0.00 0.00 0.00 38 1014.1
20260509083527 75 273 4.0 9.0 0.00 0.00 0.00 41 1014.2
20260509083046 75 276 2.0 8.0 0.00 0.00 0.00 42 1014.3
20260509082526 75 265 3.0 7.0 0.00 0.00 0.00 42 1014.2
20260509082028 74 236 1.0 7.0 0.00 0.00 0.00 44 1014.3
20260509081545 74 206 3.0 7.0 0.00 0.00 0.00 45 1014.1
20260509081030 73 252 4.0 7.0 0.00 0.00 0.00 45 1014.1
20260509080526 73 263 2.0 7.0 0.00 0.00 0.00 46 1014.0
20260509080043 73 254 3.0 7.0 0.00 0.00 0.00 48 1013.9
20260509075527 73 258 3.0 7.0 0.00 0.00 0.00 48 1014.0
20260509075028 73 206 2.0 7.0 0.00 0.00 0.00 48 1014.0
20260509074537 72 244 3.0 7.0 0.00 0.00 0.00 49 1014.0
20260509074027 72 246 4.0 7.0 0.00 0.00 0.00 49 1014.0
20260509073528 72 275 1.0 7.0 0.00 0.00 0.00 50 1014.0
20260509073039 72 263 3.0 7.0 0.00 0.00 0.00 50 1014.1
20260509072528 71 0 1.0 4.0 0.00 0.00 0.00 51 1014.1
20260509072026 71 235 1.0 4.0 0.00 0.00 0.00 52 1014.2
20260509071540 70 273 2.0 6.0 0.00 0.00 0.00 53 1014.2
20260509071028 70 0 3.0 6.0 0.00 0.00 0.00 52 1014.3
20260509070527 71 0 0.0 5.0 0.00 0.00 0.00 52 1014.1
20260509070040 70 227 2.0 7.0 0.00 0.00 0.00 52 1014.1
20260509065527 70 250 1.0 7.0 0.00 0.00 0.00 53 1014.2
20260509065027 70 265 3.0 7.0 0.00 0.00 0.00 53 1014.3
20260509064536 69 285 1.0 4.0 0.00 0.00 0.00 52 1014.2
20260509064031 70 292 0.0 3.0 0.00 0.00 0.00 52 1014.1
20260509063527 70 0 0.0 3.0 0.00 0.00 0.00 51 1014.0
20260509063035 69 294 1.0 3.0 0.00 0.00 0.00 54 1014.1
20260509062527 69 314 1.0 3.0 0.00 0.00 0.00 56 1014.1
20260509062026 68 31 0.0 4.0 0.00 0.00 0.00 57 1014.1
20260509061541 67 25 2.0 4.0 0.00 0.00 0.00 59 1014.2
20260509061028 67 52 1.0 3.0 0.00 0.00 0.00 61 1014.3
20260509060528 66 0 1.0 4.0 0.00 0.00 0.00 60 1014.3
20260509060035 66 53 2.0 5.0 0.00 0.00 0.00 61 1014.1
20260509055528 65 53 3.0 5.0 0.00 0.00 0.00 62 1014.2
20260509055027 65 78 3.0 5.0 0.00 0.00 0.00 63 1014.1
20260509054537 65 151 2.0 4.0 0.00 0.00 0.00 63 1014.1
20260509054026 64 155 1.0 3.0 0.00 0.00 0.00 64 1014.2
20260509053527 64 0 0.0 0.0 0.00 0.00 0.00 63 1014.1
20260509053043 64 0 0.0 0.0 0.00 0.00 0.00 63 1014.1
20260509052526 64 0 0.0 3.0 0.00 0.00 0.00 62 1014.1
20260509052026 64 0 0.0 5.0 0.00 0.00 0.00 62 1014.3
20260509051540 64 0 2.0 5.0 0.00 0.00 0.00 62 1014.1
20260509051030 64 156 0.0 2.0 0.00 0.00 0.00 62 1014.3
20260509050526 64 156 0.0 2.0 0.00 0.00 0.00 62 1014.4
20260509050050 64 0 0.0 0.0 0.00 0.00 0.00 63 1014.4
20260509045527 64 0 0.0 0.0 0.00 0.00 0.00 63 1014.6
20260509045027 64 0 0.0 0.0 0.00 0.00 0.00 63 1014.4
20260509044539 64 0 0.0 0.0 0.00 0.00 0.00 64 1014.4
20260509044027 64 0 0.0 2.0 0.00 0.00 0.00 64 1014.4
20260509043525 63 0 0.0 2.0 0.00 0.00 0.00 63 1014.4
20260509043046 63 0 1.0 2.0 0.00 0.00 0.00 64 1014.4
20260509042526 64 156 0.0 2.0 0.00 0.00 0.00 63 1014.3
20260509042027 64 0 0.0 2.0 0.00 0.00 0.00 61 1014.2
20260509041541 63 156 1.0 2.0 0.00 0.00 0.00 62 1014.3
20260509041028 64 156 0.0 2.0 0.00 0.00 0.00 61 1014.5
20260509040526 64 0 0.0 0.0 0.00 0.00 0.00 59 1014.5
20260509040039 64 0 0.0 0.0 0.00 0.00 0.00 59 1014.2
20260509035527 64 0 0.0 0.0 0.00 0.00 0.00 56 1014.0
20260509035027 64 0 0.0 1.0 0.00 0.00 0.00 55 1014.1
20260509034543 65 0 0.0 3.0 0.00 0.00 0.00 53 1014.1
20260509034026 65 0 0.0 3.0 0.00 0.00 0.00 54 1014.1
20260509033526 65 157 2.0 3.0 0.00 0.00 0.00 53 1014.1
20260509033048 64 155 2.0 3.0 0.00 0.00 0.00 54 1013.9
20260509032526 64 152 2.0 3.0 0.00 0.00 0.00 55 1014.0
20260509032025 63 151 1.0 3.0 0.00 0.00 0.00 56 1013.9
20260509031538 63 144 2.0 3.0 0.00 0.00 0.00 58 1014.0
20260509031026 63 0 0.0 0.0 0.00 0.00 0.00 61 1014.1
20260509030527 63 0 0.0 2.0 0.00 0.00 0.00 60 1014.1
20260509030040 64 0 0.0 4.0 0.00 0.00 0.00 58 1014.2
20260509025527 64 130 1.0 5.0 0.00 0.00 0.00 57 1013.8
20260509025026 63 130 3.0 5.0 0.00 0.00 0.00 60 1013.8
20260509024545 63 121 2.0 4.0 0.00 0.00 0.00 63 1013.9
20260509024030 63 119 1.0 3.0 0.00 0.00 0.00 64 1013.9
20260509023527 63 0 0.0 4.0 0.00 0.00 0.00 62 1013.8
20260509023040 63 0 1.0 4.0 0.00 0.00 0.00 63 1013.9
20260509022526 63 117 2.0 4.0 0.00 0.00 0.00 64 1013.8
20260509022026 63 113 2.0 4.0 0.00 0.00 0.00 64 1013.7
20260509021535 63 109 2.0 3.0 0.00 0.00 0.00 64 1013.8
20260509021027 64 0 0.0 4.0 0.00 0.00 0.00 63 1014.0
20260509020525 64 107 1.0 4.0 0.00 0.00 0.00 60 1013.7
20260509020034 64 108 2.0 4.0 0.00 0.00 0.00 61 1013.9
20260509015526 64 110 1.0 3.0 0.00 0.00 0.00 61 1014.0
20260509015107 63 110 1.0 3.0 0.00 0.00 0.00 63 1013.9
20260509014536 63 0 0.0 4.0 0.00 0.00 0.00 65 1014.1
20260509014026 64 110 2.0 4.0 0.00 0.00 0.00 62 1014.3
20260509013526 64 111 0.0 4.0 0.00 0.00 0.00 63 1014.2
20260509013047 64 0 1.0 4.0 0.00 0.00 0.00 63 1014.3
20260509012526 63 111 2.0 4.0 0.00 0.00 0.00 66 1014.5
20260509012026 63 0 0.0 5.0 0.00 0.00 0.00 68 1014.8
20260509011540 63 0 2.0 5.0 0.00 0.00 0.00 67 1014.8
20260509011027 63 0 0.0 0.0 0.00 0.00 0.00 69 1015.0
20260509010527 63 0 0.0 0.0 0.00 0.00 0.00 69 1015.1
20260509010037 63 0 0.0 0.0 0.00 0.00 0.00 68 1015.1
20260509005526 63 0 0.0 3.0 0.00 0.00 0.00 69 1015.0
20260509005026 63 0 0.0 3.0 0.00 0.00 0.00 69 1015.2
20260509004538 63 186 1.0 3.0 0.00 0.00 0.00 69 1015.1
20260509004027 63 186 1.0 3.0 0.00 0.00 0.00 69 1015.2
20260509003527 63 188 0.0 2.0 0.00 0.00 0.00 68 1015.3
20260509003036 63 0 0.0 2.0 0.00 0.00 0.00 67 1015.2
20260509002526 63 0 0.0 1.0 0.00 0.00 0.00 67 1015.4
20260509002026 63 0 0.0 1.0 0.00 0.00 0.00 67 1015.6
20260509001535 63 0 0.0 2.0 0.00 0.00 0.00 67 1015.5
20260509001027 63 189 0.0 2.0 0.00 0.00 0.00 67 1015.5
20260509000526 63 0 0.0 3.0 0.00 0.00 0.00 66 1015.6
20260509000045 63 189 1.0 3.0 0.00 0.00 0.00 66 1015.7
20260508235526 63 0 1.0 2.0 0.00 0.00 0.00 66 1015.7
20260508235025 63 188 0.0 2.0 0.00 0.00 0.00 66 1015.5
20260508234534 63 0 0.0 0.0 0.00 0.00 0.00 66 1015.6
20260508234026 64 0 0.0 2.0 0.00 0.00 0.00 66 1015.7
20260508233529 63 0 0.0 4.0 0.00 0.00 0.00 66 1015.7
20260508233033 63 188 1.0 4.0 0.00 0.00 0.00 65 1015.9
20260508232525 64 188 2.0 4.0 0.00 0.00 0.00 65 1016.1
20260508232027 64 202 0.0 2.0 0.00 0.00 0.00 65 1016.1
20260508231544 64 0 0.0 0.0 0.00 0.00 0.00 65 1016.2
20260508231027 64 0 0.0 2.0 0.00 0.00 0.00 65 1016.1
20260508230525 64 0 0.0 2.0 0.00 0.00 0.00 65 1016.0
20260508230042 64 0 0.0 2.0 0.00 0.00 0.00 64 1016.0
20260508225525 64 0 0.0 2.0 0.00 0.00 0.00 64 1016.2
20260508225025 65 0 0.0 2.0 0.00 0.00 0.00 64 1016.2
20260508224600 65 0 0.0 3.0 0.00 0.00 0.00 63 1016.2
20260508224026 65 0 0.0 3.0 0.00 0.00 0.00 63 1016.2
20260508223526 65 197 0.0 2.0 0.00 0.00 0.00 62 1016.2
20260508223037 65 197 0.0 4.0 0.00 0.00 0.00 62 1016.2
20260508222526 65 197 1.0 4.0 0.00 0.00 0.00 61 1016.2
20260508222029 65 214 0.0 3.0 0.00 0.00 0.00 61 1016.0
20260508221546 65 220 1.0 4.0 0.00 0.00 0.00 61 1016.2
20260508221026 65 0 1.0 5.0 0.00 0.00 0.00 61 1016.2
20260508220526 66 221 2.0 5.0 0.00 0.00 0.00 61 1016.3
20260508220036 66 252 1.0 4.0 0.00 0.00 0.00 60 1016.4
20260508215525 66 254 2.0 4.0 0.00 0.00 0.00 60 1016.4
20260508215025 66 0 0.0 3.0 0.00 0.00 0.00 60 1016.4
20260508214546 66 260 1.0 3.0 0.00 0.00 0.00 60 1016.3
20260508214025 66 260 1.0 4.0 0.00 0.00 0.00 60 1016.4
20260508213526 66 262 1.0 4.0 0.00 0.00 0.00 59 1016.3
20260508213041 66 261 2.0 4.0 0.00 0.00 0.00 59 1016.2
20260508212526 66 232 1.0 4.0 0.00 0.00 0.00 58 1016.2
20260508212025 66 224 1.0 6.0 0.00 0.00 0.00 57 1016.3
20260508211544 66 206 2.0 6.0 0.00 0.00 0.00 57 1016.2
20260508211026 66 188 2.0 8.0 0.00 0.00 0.00 57 1016.0
20260508210526 66 205 3.0 8.0 0.00 0.00 0.00 57 1016.1
20260508210038 66 194 3.0 8.0 0.00 0.00 0.00 56 1016.3
20260508205525 66 246 5.0 8.0 0.00 0.00 0.00 56 1016.3
20260508205025 66 216 3.0 8.0 0.00 0.00 0.00 55 1016.3
20260508204538 66 245 3.0 8.0 0.00 0.00 0.00 54 1016.4
20260508204028 66 257 3.0 8.0 0.00 0.00 0.00 54 1016.4
20260508203524 66 266 3.0 7.0 0.00 0.00 0.00 54 1016.5
20260508203037 66 0 1.0 5.0 0.00 0.00 0.00 54 1016.5
20260508202526 66 33 1.0 6.0 0.00 0.00 0.00 56 1016.5
20260508202025 66 32 3.0 6.0 0.00 0.00 0.00 56 1016.3
20260508201540 66 22 3.0 5.0 0.00 0.00 0.00 55 1016.1
20260508201029 67 200 0.0 6.0 0.00 0.00 0.00 53 1015.9
20260508200525 67 200 2.0 6.0 0.00 0.00 0.00 52 1015.8
20260508200046 66 189 2.0 5.0 0.00 0.00 0.00 54 1015.8
20260508195529 66 136 1.0 7.0 0.00 0.00 0.00 56 1015.7
20260508195029 66 135 2.0 7.0 0.00 0.00 0.00 55 1015.8
20260508194533 66 80 3.0 4.0 0.00 0.00 0.00 55 1015.8
20260508194025 66 31 1.0 5.0 0.00 0.00 0.00 55 1015.9
20260508193525 66 30 2.0 5.0 0.00 0.00 0.00 56 1015.9
20260508193040 66 55 2.0 4.0 0.00 0.00 0.00 57 1015.9
20260508192525 66 61 1.0 3.0 0.00 0.00 0.00 56 1015.6
20260508192030 66 63 0.0 4.0 0.00 0.00 0.00 56 1015.5
20260508191535 66 0 0.0 4.0 0.00 0.00 0.00 56 1015.5
20260508191028 66 63 2.0 4.0 0.00 0.00 0.00 57 1015.4
20260508190528 66 5 1.0 4.0 0.00 0.00 0.00 56 1015.6
20260508190040 66 5 0.0 6.0 0.00 0.00 0.00 57 1015.6
20260508185529 66 355 2.0 8.0 0.00 0.00 0.00 57 1015.5
20260508185027 66 11 3.0 8.0 0.00 0.00 0.00 58 1015.4
20260508184540 66 11 4.0 8.0 0.00 0.00 0.00 59 1015.3
20260508184027 66 355 2.0 8.0 0.00 0.00 0.00 59 1015.2
20260508183527 65 0 1.0 8.0 0.00 0.00 0.00 60 1015.1
20260508183044 65 129 4.0 8.0 0.00 0.00 0.00 62 1015.0
20260508182528 65 5 0.0 11.0 0.00 0.00 0.00 62 1015.3
20260508182031 65 9 4.0 11.0 0.00 0.00 0.00 62 1015.3
20260508181547 65 347 7.0 11.0 0.00 0.00 0.00 62 1015.2
20260508181030 66 336 4.0 8.0 0.00 0.00 0.00 62 1014.9
20260508180528 66 322 3.0 8.0 0.00 0.00 0.00 62 1014.4
20260508180044 66 336 2.0 8.0 0.00 0.00 0.00 62 1014.3
20260508175530 66 360 1.0 6.0 0.00 0.00 0.00 62 1014.4
20260508175028 66 319 2.0 7.0 0.00 0.00 0.00 61 1014.4
20260508174538 67 24 3.0 7.0 0.00 0.00 0.00 59 1014.3
20260508174027 67 355 4.0 5.0 0.00 0.00 0.00 57 1013.9
20260508173528 67 71 1.0 4.0 0.00 0.00 0.00 56 1013.8
20260508173039 67 0 0.0 4.0 0.00 0.00 0.00 55 1013.7
20260508172528 68 84 1.0 4.0 0.00 0.00 0.00 54 1013.6
20260508172028 68 86 1.0 4.0 0.00 0.00 0.00 55 1013.7
20260508171537 68 46 1.0 6.0 0.00 0.00 0.00 55 1013.9
20260508171029 68 36 2.0 6.0 0.00 0.00 0.00 54 1014.0
20260508170527 68 10 3.0 5.0 0.00 0.00 0.00 53 1014.2
20260508170036 69 22 2.0 5.0 0.00 0.00 0.00 51 1014.1
20260508165527 69 30 2.0 6.0 0.00 0.00 0.00 49 1013.9
20260508165027 70 345 2.0 6.0 0.00 0.00 0.00 47 1013.9
20260508164535 70 265 2.0 10.0 0.00 0.00 0.00 44 1013.9
20260508164027 70 0 3.0 10.0 0.00 0.00 0.00 44 1013.8
20260508163527 71 217 4.0 9.0 0.00 0.00 0.00 43 1013.9
20260508163033 71 200 2.0 8.0 0.00 0.00 0.00 43 1013.7
20260508162527 71 171 3.0 8.0 0.00 0.00 0.00 43 1013.6
20260508162027 71 253 3.0 10.0 0.00 0.00 0.00 43 1013.7
20260508161541 71 264 4.0 10.0 0.00 0.00 0.00 43 1013.6
20260508161025 71 242 1.0 7.0 0.00 0.00 0.00 44 1013.6
20260508160524 71 263 3.0 8.0 0.00 0.00 0.00 45 1013.5
20260508160039 71 192 2.0 8.0 0.00 0.00 0.00 45 1013.6
20260508155528 71 272 3.0 11.0 0.00 0.00 0.00 45 1013.7
20260508155026 71 265 5.0 11.0 0.00 0.00 0.00 45 1013.7
20260508154536 71 246 2.0 8.0 0.00 0.00 0.00 44 1013.7
20260508154025 71 288 3.0 10.0 0.00 0.00 0.00 45 1013.6
20260508153527 71 289 5.0 10.0 0.00 0.00 0.00 46 1013.7
20260508153036 72 246 5.0 11.0 0.00 0.00 0.00 45 1013.7
20260508152525 72 261 5.0 11.0 0.00 0.00 0.00 45 1013.5
20260508152029 72 242 6.0 11.0 0.00 0.00 0.00 45 1013.4
20260508151543 72 254 6.0 15.0 0.00 0.00 0.00 45 1013.6
20260508151028 72 250 5.0 15.0 0.00 0.00 0.00 45 1013.6
20260508150523 72 224 5.0 14.0 0.00 0.00 0.00 45 1013.6
20260508150051 72 245 8.0 15.0 0.00 0.00 0.00 45 1013.6
20260508145525 73 233 5.0 15.0 0.00 0.00 0.00 45 1013.5
20260508145024 73 225 7.0 15.0 0.00 0.00 0.00 45 1013.4
20260508144543 73 248 7.0 16.0 0.00 0.00 0.00 44 1013.5
20260508144027 73 279 9.0 17.0 0.00 0.00 0.00 45 1013.3
20260508143526 73 221 8.0 17.0 0.00 0.00 0.00 46 1013.4
20260508143044 73 186 10.0 16.0 0.00 0.00 0.00 48 1013.3
20260508142525 74 244 7.0 15.0 0.00 0.00 0.00 47 1013.3
20260508142025 74 241 6.0 15.0 0.00 0.00 0.00 46 1013.4
20260508141536 73 163 9.0 15.0 0.00 0.00 0.00 46 1013.5
20260508141024 73 254 8.0 15.0 0.00 0.00 0.00 46 1013.6
20260508140525 73 250 6.0 14.0 0.00 0.00 0.00 47 1013.6
20260508140042 74 243 6.0 14.0 0.00 0.00 0.00 46 1013.7
20260508135525 74 245 7.0 14.0 0.00 0.00 0.00 45 1013.7
20260508135026 74 271 5.0 13.0 0.00 0.00 0.00 43 1013.8
20260508134532 74 248 5.0 15.0 0.00 0.00 0.00 43 1014.0
20260508134025 74 256 6.0 15.0 0.00 0.00 0.00 43 1014.2
20260508133525 74 229 8.0 15.0 0.00 0.00 0.00 43 1014.1
20260508133042 74 173 6.0 15.0 0.00 0.00 0.00 42 1014.1
20260508132524 74 218 7.0 16.0 0.00 0.00 0.00 43 1014.3
20260508132025 74 230 8.0 16.0 0.00 0.00 0.00 43 1014.3
20260508131534 73 213 9.0 16.0 0.00 0.00 0.00 44 1014.3
20260508131025 74 209 7.0 14.0 0.00 0.00 0.00 44 1014.4
20260508130527 73 248 8.0 14.0 0.00 0.00 0.00 43 1014.6
20260508130035 74 221 7.0 12.0 0.00 0.00 0.00 43 1014.7
20260508125527 73 263 8.0 13.0 0.00 0.00 0.00 43 1014.8
20260508125027 73 303 5.0 13.0 0.00 0.00 0.00 42 1014.8
20260508124535 74 278 3.0 11.0 0.00 0.00 0.00 40 1014.9
20260508124027 74 259 3.0 12.0 0.00 0.00 0.00 41 1015.0
20260508123527 73 223 3.0 14.0 0.00 0.00 0.00 41 1015.1
20260508123040 73 242 8.0 14.0 0.00 0.00 0.00 41 1015.1
20260508122530 73 194 5.0 11.0 0.00 0.00 0.00 40 1015.2
20260508122028 73 269 4.0 10.0 0.00 0.00 0.00 40 1015.4
20260508121539 73 211 4.0 10.0 0.00 0.00 0.00 40 1015.6
20260508121027 73 201 3.0 10.0 0.00 0.00 0.00 40 1015.6
20260508120527 71 235 4.0 17.0 0.00 0.00 0.00 43 1015.5
20260508120034 71 278 8.0 18.0 0.00 0.00 0.00 43 1015.5
20260508115528 71 207 9.0 18.0 0.00 0.00 0.00 44 1015.5
20260508115027 70 240 6.0 14.0 0.00 0.00 0.00 45 1015.6
20260508114537 70 236 6.0 16.0 0.00 0.00 0.00 44 1015.8
20260508114029 70 257 7.0 16.0 0.00 0.00 0.00 43 1015.9
20260508113527 70 239 5.0 11.0 0.00 0.00 0.00 44 1015.7
20260508113108 70 144 3.0 11.0 0.00 0.00 0.00 44 1015.1
20260508112527 70 197 5.0 11.0 0.00 0.00 0.00 44 1015.6